This demonstration page uses our WeatherBlox Daily Observations layout. Learn more.

Hourly Observations for September 20, 2019

Temp ( °F °C ) Dew Point ( °F °C ) Humidity (%) Winds ( mph kmh ) Pressure ( in mb ) Visibility ( mi km ) Precip ( " mm )
12:53 am 00:53 Clear 67 19.4 62 16.7 84 84 Calm 30.06 1018 10 16.09344 0 0
1:53 am 01:53 Mostly Clear 66 18.9 62 16.7 87 87 Calm 30.06 1018 8 12.874752 0 0
2:53 am 02:53 Clear 67 19.4 62 16.7 84 84 SE 5 7 30.06 1018 8 12.874752 0 0
3:53 am 03:53 Clear 65 18.3 61 16.1 87 87 Calm 30.06 1018 7 11.265408 0 0
4:53 am 04:53 Mostly Cloudy 65 18.3 61 16.1 87 87 Calm 30.09 1019 8 12.874752 0 0
5:53 am 05:53 Mostly Cloudy 65 18.3 61 16.1 87 87 Calm 30.09 1019 7 11.265408 0 0
6:53 am 06:53 Partly Cloudy 66 18.9 62 16.7 87 87 ESE 3 6 30.09 1019 7 11.265408 0 0
7:53 am 07:53 Partly Cloudy 68 20 64 17.8 87 87 S 3 6 30.12 1020 7 11.265408 0 0
8:53 am 08:53 Sunny 72 22.2 66 18.9 82 82 SW 3 6 30.12 1020 8 12.874752 0 0
9:53 am 09:53 Sunny 76 24.4 66 18.9 72 72 SW 3 6 30.12 1020 10 16.09344 0 0
10:53 am 10:53 Sunny 80 26.7 67 19.4 64 64 Calm 30.12 1020 10 16.09344 0 0
11:53 am 11:53 Sunny 83 28.3 67 19.4 59 59 SW 3 6 30.12 1020 10 16.09344 0 0
12:53 pm 12:53 Sunny 85 29.4 65 18.3 51 51 VRB 3 6 30.12 1020 10 16.09344 0 0
1:53 pm 13:53 Sunny 87 30.6 62 16.7 43 43 Calm 30.09 1019 10 16.09344 0 0
2:53 pm 14:53 Sunny 89 31.7 62 16.7 41 41 W 3 6 30.09 1019 10 16.09344 0 0
3:53 pm 15:53 Sunny 88 31.1 62 16.7 42 42 WNW 5 7 30.09 1019 10 16.09344 0 0
4:53 pm 16:53 Sunny 89 31.7 62 16.7 41 41 WNW 6 9 30.06 1018 10 16.09344 0 0
5:53 pm 17:53 Sunny 88 31.1 62 16.7 42 42 WNW 5 7 30.06 1018 10 16.09344 0 0
6:53 pm 18:53 Mostly Sunny 86 30 63 17.2 46 46 WSW 5 7 30.09 1019 10 16.09344 0 0
7:53 pm 19:53 Clear 81 27.2 64 17.8 57 57 Calm 30.09 1019 10 16.09344 0 0
8:53 pm 20:53 Clear 77 25 65 18.3 66 66 Calm 30.09 1019 10 16.09344 0 0
9:53 pm 21:53 Clear 74 23.3 64 17.8 71 71 Calm 30.12 1020 10 16.09344 0 0
10:53 pm 22:53 Cloudy 76 24.4 66 18.9 72 72 W 5 7 30.12 1020 10 16.09344 0 0
11:53 pm 23:53 Mostly Cloudy 77 25 66 18.9 69 69 SW 3 6 30.12 1020 10 16.09344 0 0

Powered by AerisWeather